Location: *
(44.3526°S, 44.9014°W)
Time: 22:49:29
(UTC+00:00)

IRS-P3 - Pass Details

Date: 13 May 2025
Orbit: 811 x 815 km, 99.0° (Epoch: 14 June)

Event Time Altitude Azimuth Distance (km) Brightness Sun altitude
Rises 21:13:38 0° 164° (SSE) 3,378 7.1 -16.0°
Reaches altitude 10° 21:16:01 10° 162° (SSE) 2,438 6.3 -16.4°
Maximum altitude 21:21:25 72° 76° (ENE) 865 4.0 -17.3°
Drops below altitude 10° 21:26:44 10° 352° (N) 2,405 6.8 -18.3°
Sets 21:29:04 0° 349° (N) 3,328 7.5 -18.7°
